Wetterdaten: Woche 19.11.18 - 25.11.18 (KW47)
Datum Zeit Temperatur Luftfeuchte Luftdruck Niederschlag Windrichtung Sonnenschein Solar Wind
19.11.2018 00:00 1,1 C 85 % 1015,8 hPa 0,0 l/m O-NO 0,00 h 0 W/m 16,1 km/h (3 Bft)
19.11.2018 01:00 1,0 C 86 % 1015,0 hPa 0,0 l/m NO 0,00 h 0 W/m 18,2 km/h (3 Bft)
19.11.2018 02:00 0,9 C 88 % 1014,3 hPa 0,0 l/m O-NO 0,00 h 0 W/m 14,5 km/h (3 Bft)
19.11.2018 03:00 0,7 C 90 % 1013,6 hPa 0,0 l/m O-NO 0,00 h 0 W/m 18,4 km/h (3 Bft)
19.11.2018 04:00 0,7 C 91 % 1012,9 hPa 0,0 l/m O-NO 0,00 h 0 W/m 19,6 km/h (3 Bft)
19.11.2018 05:00 0,5 C 92 % 1012,2 hPa 0,0 l/m NO 0,00 h 0 W/m 18,8 km/h (3 Bft)
19.11.2018 06:00 0,1 C 93 % 1011,7 hPa 0,0 l/m O-NO 0,00 h 0 W/m 19,7 km/h (3 Bft)
19.11.2018 07:00 -0,8 C 92 % 1011,4 hPa 0,0 l/m NO 0,00 h 6 W/m 18,2 km/h (3 Bft)
19.11.2018 08:00 -0,9 C 87 % 1011,1 hPa 0,0 l/m O-NO 0,00 h 35 W/m 20,4 km/h (4 Bft)
19.11.2018 09:00 -0,8 C 85 % 1010,6 hPa 0,0 l/m O-NO 0,00 h 58 W/m 21,3 km/h (4 Bft)
19.11.2018 10:00 -0,7 C 85 % 1010,0 hPa 0,0 l/m O-NO 0,00 h 41 W/m 25,3 km/h (4 Bft)
19.11.2018 11:00 -0,5 C 86 % 1009,3 hPa 0,0 l/m O-NO 0,00 h 60 W/m 24,4 km/h (4 Bft)
19.11.2018 12:00 -0,3 C 87 % 1008,3 hPa 0,0 l/m O 0,00 h 60 W/m 22,9 km/h (4 Bft)
19.11.2018 13:00 -0,2 C 84 % 1007,8 hPa 0,0 l/m O 0,00 h 51 W/m 25,7 km/h (4 Bft)
19.11.2018 14:00 -0,3 C 85 % 1007,2 hPa 0,0 l/m O 0,00 h 24 W/m 25,7 km/h (4 Bft)
19.11.2018 15:00 -0,6 C 86 % 1007,1 hPa 0,0 l/m O-NO 0,00 h 15 W/m 27,3 km/h (4 Bft)
19.11.2018 16:00 -0,7 C 87 % 1007,0 hPa 0,0 l/m O 0,00 h 6 W/m 24,4 km/h (4 Bft)
19.11.2018 17:00 -0,8 C 88 % 1007,0 hPa 0,0 l/m O-NO 0,00 h 0 W/m 23,5 km/h (4 Bft)
19.11.2018 18:00 -0,8 C 88 % 1006,9 hPa 0,0 l/m O-NO 0,00 h 0 W/m 21,6 km/h (4 Bft)
19.11.2018 19:00 -0,7 C 89 % 1006,6 hPa 0,0 l/m O 0,00 h 0 W/m 20,2 km/h (4 Bft)
19.11.2018 20:00 -0,6 C 89 % 1006,5 hPa 0,0 l/m O 0,00 h 0 W/m 17,7 km/h (3 Bft)
19.11.2018 21:00 -0,3 C 90 % 1006,3 hPa 0,0 l/m O 0,00 h 0 W/m 15,3 km/h (3 Bft)
19.11.2018 22:00 -0,2 C 89 % 1005,9 hPa 0,0 l/m O-NO 0,00 h 0 W/m 17,3 km/h (3 Bft)
19.11.2018 23:00 -0,2 C 89 % 1005,8 hPa 0,0 l/m O-NO 0,00 h 0 W/m 13,7 km/h (3 Bft)
20.11.2018 00:00 -0,5 C 89 % 1005,4 hPa 0,0 l/m O-NO 0,00 h 0 W/m 18,9 km/h (3 Bft)
20.11.2018 01:00 -0,7 C 89 % 1005,1 hPa 0,0 l/m O 0,00 h 0 W/m 21,3 km/h (4 Bft)
20.11.2018 02:00 -0,7 C 89 % 1004,7 hPa 0,0 l/m O 0,00 h 0 W/m 16,9 km/h (3 Bft)
20.11.2018 03:00 -0,9 C 89 % 1004,3 hPa 0,0 l/m O 0,00 h 0 W/m 16,2 km/h (3 Bft)
20.11.2018 04:00 -0,8 C 90 % 1004,0 hPa 0,0 l/m O-NO 0,00 h 0 W/m 12,4 km/h (3 Bft)
20.11.2018 05:00 -0,9 C 90 % 1003,8 hPa 0,0 l/m O-NO 0,00 h 0 W/m 15,3 km/h (3 Bft)
20.11.2018 06:00 -0,9 C 90 % 1003,8 hPa 0,0 l/m O-NO 0,00 h 0 W/m 14,2 km/h (3 Bft)
20.11.2018 07:00 -0,8 C 90 % 1003,8 hPa 0,0 l/m O-NO 0,00 h 5 W/m 11,8 km/h (2 Bft)
20.11.2018 08:00 -0,6 C 90 % 1004,1 hPa 0,0 l/m O-NO 0,00 h 14 W/m 11,4 km/h (2 Bft)
20.11.2018 09:00 -0,3 C 90 % 1004,0 hPa 0,0 l/m O-NO 0,00 h 26 W/m 9,0 km/h (2 Bft)
20.11.2018 10:00 0,1 C 90 % 1004,2 hPa 0,0 l/m O-NO 0,00 h 76 W/m 11,3 km/h (2 Bft)
20.11.2018 11:00 0,7 C 88 % 1004,2 hPa 0,0 l/m O 0,00 h 108 W/m 10,7 km/h (2 Bft)
20.11.2018 12:00 1,2 C 86 % 1004,2 hPa 0,0 l/m O 0,00 h 112 W/m 8,3 km/h (2 Bft)
20.11.2018 13:00 1,6 C 84 % 1004,3 hPa 0,0 l/m O-NO 0,33 h 171 W/m 7,0 km/h (2 Bft)
20.11.2018 14:00 2,2 C 83 % 1004,5 hPa 0,0 l/m O-NO 1,00 h 205 W/m 7,9 km/h (2 Bft)
20.11.2018 15:00 2,5 C 82 % 1005,0 hPa 0,0 l/m NO 0,83 h 98 W/m 4,3 km/h (1 Bft)
20.11.2018 16:00 1,8 C 83 % 1005,4 hPa 0,0 l/m N 0,17 h 15 W/m 1,5 km/h (1 Bft)
20.11.2018 17:00 0,6 C 83 % 1006,0 hPa 0,0 l/m N 0,00 h 0 W/m 0,0 km/h (0 Bft)
20.11.2018 18:00 -0,6 C 86 % 1006,7 hPa 0,0 l/m N 0,00 h 0 W/m 0,4 km/h (0 Bft)
20.11.2018 19:00 -1,2 C 88 % 1007,0 hPa 0,0 l/m N 0,00 h 0 W/m 0,0 km/h (0 Bft)
20.11.2018 20:00 -1,7 C 89 % 1007,2 hPa 0,0 l/m N 0,00 h 0 W/m 0,3 km/h (0 Bft)
20.11.2018 21:00 -1,7 C 91 % 1007,9 hPa 0,0 l/m NO 0,00 h 0 W/m 2,3 km/h (1 Bft)
20.11.2018 22:00 -1,8 C 93 % 1008,5 hPa 0,0 l/m NO 0,00 h 0 W/m 2,0 km/h (1 Bft)
20.11.2018 23:00 -2,0 C 93 % 1008,8 hPa 0,0 l/m N 0,00 h 0 W/m 0,0 km/h (0 Bft)
21.11.2018 00:00 -2,4 C 94 % 1008,9 hPa 0,0 l/m N 0,00 h 0 W/m 0,0 km/h (0 Bft)
21.11.2018 01:00 -2,8 C 93 % 1008,8 hPa 0,0 l/m NO 0,00 h 0 W/m 0,9 km/h (0 Bft)
21.11.2018 02:00 -2,0 C 95 % 1009,2 hPa 0,0 l/m NO 0,00 h 0 W/m 7,2 km/h (2 Bft)
21.11.2018 03:00 -1,5 C 96 % 1009,6 hPa 0,0 l/m NO 0,00 h 0 W/m 7,1 km/h (2 Bft)
21.11.2018 04:00 -1,4 C 96 % 1009,9 hPa 0,0 l/m NO 0,00 h 0 W/m 5,6 km/h (1 Bft)
21.11.2018 05:00 -1,3 C 96 % 1010,3 hPa 0,0 l/m NO 0,00 h 0 W/m 5,0 km/h (1 Bft)
21.11.2018 06:00 -1,3 C 97 % 1010,9 hPa 0,0 l/m NO 0,00 h 0 W/m 6,0 km/h (2 Bft)
21.11.2018 07:00 -1,3 C 97 % 1011,7 hPa 0,0 l/m NO 0,00 h 8 W/m 5,5 km/h (1 Bft)
21.11.2018 08:00 -1,6 C 97 % 1012,4 hPa 0,0 l/m O-NO 0,00 h 17 W/m 12,5 km/h (3 Bft)
21.11.2018 09:00 -1,4 C 97 % 1013,0 hPa 0,0 l/m O-NO 0,00 h 42 W/m 10,9 km/h (2 Bft)
21.11.2018 10:00 -1,2 C 97 % 1013,2 hPa 0,0 l/m O-NO 0,00 h 59 W/m 9,7 km/h (2 Bft)
21.11.2018 11:00 -0,8 C 98 % 1013,6 hPa 0,0 l/m NO 0,00 h 59 W/m 8,2 km/h (2 Bft)
21.11.2018 12:00 -0,7 C 98 % 1013,8 hPa 0,0 l/m O-NO 0,00 h 56 W/m 9,3 km/h (2 Bft)
21.11.2018 13:00 -0,4 C 97 % 1014,0 hPa 0,0 l/m NO 0,00 h 50 W/m 6,2 km/h (2 Bft)
21.11.2018 14:00 -0,3 C 97 % 1014,2 hPa 0,0 l/m NO 0,00 h 29 W/m 5,1 km/h (1 Bft)
21.11.2018 15:00 -0,4 C 97 % 1014,9 hPa 0,0 l/m N 0,00 h 13 W/m 0,4 km/h (0 Bft)
21.11.2018 16:00 -0,4 C 97 % 1015,7 hPa 0,0 l/m NO 0,00 h 7 W/m 1,6 km/h (1 Bft)
21.11.2018 17:00 -0,4 C 97 % 1016,3 hPa 0,0 l/m N 0,00 h 0 W/m 0,9 km/h (0 Bft)
21.11.2018 18:00 -0,4 C 97 % 1016,8 hPa 0,0 l/m NO 0,00 h 0 W/m 0,7 km/h (0 Bft)
21.11.2018 19:00 -0,6 C 97 % 1016,9 hPa 0,0 l/m N 0,00 h 0 W/m 0,0 km/h (0 Bft)
21.11.2018 20:00 -0,6 C 97 % 1017,3 hPa 0,0 l/m N 0,00 h 0 W/m 0,0 km/h (0 Bft)
21.11.2018 21:00 -0,7 C 97 % 1017,4 hPa 0,0 l/m N 0,00 h 0 W/m 0,0 km/h (0 Bft)
21.11.2018 22:00 -0,7 C 97 % 1017,4 hPa 0,0 l/m N 0,00 h 0 W/m 0,7 km/h (0 Bft)
21.11.2018 23:00 -0,6 C 96 % 1017,5 hPa 0,0 l/m N 0,00 h 0 W/m 0,0 km/h (0 Bft)
22.11.2018 00:00 -0,5 C 96 % 1017,8 hPa 0,0 l/m N 0,00 h 0 W/m 0,0 km/h (0 Bft)
22.11.2018 01:00 -0,4 C 96 % 1018,0 hPa 0,0 l/m N 0,00 h 0 W/m 0,0 km/h (0 Bft)
22.11.2018 02:00 -0,3 C 96 % 1018,2 hPa 0,0 l/m N 0,00 h 0 W/m 0,0 km/h (0 Bft)
22.11.2018 03:00 -0,2 C 96 % 1018,4 hPa 0,0 l/m N 0,00 h 0 W/m 0,0 km/h (0 Bft)
22.11.2018 04:00 -0,2 C 96 % 1018,5 hPa 0,0 l/m N 0,00 h 0 W/m 0,0 km/h (0 Bft)
22.11.2018 05:00 -0,1 C 96 % 1018,5 hPa 0,0 l/m N 0,00 h 0 W/m 0,0 km/h (0 Bft)
22.11.2018 06:00 -0,1 C 96 % 1018,5 hPa 0,0 l/m N 0,00 h 0 W/m 0,0 km/h (0 Bft)
22.11.2018 07:00 -0,1 C 97 % 1018,7 hPa 0,0 l/m N 0,00 h 8 W/m 0,0 km/h (0 Bft)
22.11.2018 08:00 -0,0 C 97 % 1018,8 hPa 0,0 l/m N 0,00 h 33 W/m 0,0 km/h (0 Bft)
22.11.2018 09:00 0,4 C 97 % 1018,9 hPa 0,0 l/m N 0,00 h 86 W/m 0,0 km/h (0 Bft)
22.11.2018 10:00 1,2 C 96 % 1019,2 hPa 0,0 l/m N 0,33 h 164 W/m 0,5 km/h (0 Bft)
22.11.2018 11:00 2,8 C 93 % 1019,2 hPa 0,0 l/m NO 1,00 h 350 W/m 3,9 km/h (1 Bft)
22.11.2018 12:00 4,4 C 89 % 1019,0 hPa 0,0 l/m NO 1,00 h 359 W/m 2,4 km/h (1 Bft)
22.11.2018 13:00 5,4 C 86 % 1018,6 hPa 0,0 l/m NO 1,00 h 322 W/m 6,0 km/h (2 Bft)
22.11.2018 14:00 5,4 C 86 % 1018,6 hPa 0,0 l/m NO 1,00 h 228 W/m 3,6 km/h (1 Bft)
22.11.2018 15:00 4,7 C 87 % 1018,5 hPa 0,0 l/m NO 0,75 h 93 W/m 3,3 km/h (1 Bft)
22.11.2018 16:00 3,0 C 90 % 1018,7 hPa 0,0 l/m NO 0,08 h 13 W/m 3,6 km/h (1 Bft)
22.11.2018 17:00 1,4 C 91 % 1019,3 hPa 0,0 l/m N 0,00 h 0 W/m 3,3 km/h (1 Bft)
22.11.2018 18:00 1,0 C 94 % 1019,6 hPa 0,0 l/m NO 0,00 h 0 W/m 5,2 km/h (1 Bft)
22.11.2018 19:00 0,7 C 95 % 1019,7 hPa 0,0 l/m NO 0,00 h 0 W/m 2,4 km/h (1 Bft)
22.11.2018 20:00 0,7 C 96 % 1019,7 hPa 0,0 l/m NO 0,00 h 0 W/m 3,9 km/h (1 Bft)
22.11.2018 21:00 0,5 C 96 % 1019,9 hPa 0,0 l/m N 0,00 h 0 W/m 0,8 km/h (0 Bft)
22.11.2018 22:00 0,3 C 97 % 1020,3 hPa 0,0 l/m N 0,00 h 0 W/m 0,0 km/h (0 Bft)
22.11.2018 23:00 0,1 C 97 % 1020,5 hPa 0,0 l/m N 0,00 h 0 W/m 0,4 km/h (0 Bft)
23.11.2018 00:00 -0,2 C 97 % 1020,2 hPa 0,0 l/m N 0,00 h 0 W/m 0,3 km/h (0 Bft)
23.11.2018 01:00 -0,4 C 97 % 1020,1 hPa 0,0 l/m N 0,00 h 0 W/m 0,0 km/h (0 Bft)
23.11.2018 02:00 -0,6 C 97 % 1020,5 hPa 0,0 l/m N 0,00 h 0 W/m 0,0 km/h (0 Bft)
23.11.2018 03:00 -0,8 C 98 % 1020,6 hPa 0,0 l/m N 0,00 h 0 W/m 0,0 km/h (0 Bft)
23.11.2018 04:00 -0,9 C 98 % 1020,6 hPa 0,0 l/m N 0,00 h 0 W/m 0,0 km/h (0 Bft)
23.11.2018 05:00 -0,8 C 98 % 1020,7 hPa 0,0 l/m N 0,00 h 0 W/m 0,0 km/h (0 Bft)
23.11.2018 06:00 -1,0 C 98 % 1020,4 hPa 0,0 l/m N 0,00 h 0 W/m 0,0 km/h (0 Bft)
23.11.2018 07:00 -1,2 C 98 % 1020,4 hPa 0,0 l/m N 0,00 h 6 W/m 0,0 km/h (0 Bft)
23.11.2018 08:00 -1,2 C 98 % 1020,7 hPa 0,0 l/m N 0,00 h 25 W/m 0,7 km/h (0 Bft)
23.11.2018 09:00 -1,2 C 98 % 1020,3 hPa 0,0 l/m NO 0,00 h 67 W/m 2,4 km/h (1 Bft)
23.11.2018 10:00 -0,4 C 98 % 1020,0 hPa 0,0 l/m NO 0,00 h 108 W/m 4,1 km/h (1 Bft)
23.11.2018 11:00 0,3 C 99 % 1019,2 hPa 0,0 l/m NO 0,00 h 105 W/m 3,5 km/h (1 Bft)
23.11.2018 12:00 0,6 C 99 % 1018,1 hPa 0,0 l/m NO 0,00 h 96 W/m 6,2 km/h (2 Bft)
23.11.2018 13:00 0,7 C 99 % 1017,2 hPa 0,0 l/m NO 0,00 h 95 W/m 10,2 km/h (2 Bft)
23.11.2018 14:00 0,7 C 99 % 1016,6 hPa 0,0 l/m NO 0,00 h 51 W/m 8,7 km/h (2 Bft)
23.11.2018 15:00 0,8 C 99 % 1016,4 hPa 0,0 l/m NO 0,00 h 24 W/m 9,4 km/h (2 Bft)
23.11.2018 16:00 0,9 C 99 % 1016,2 hPa 0,0 l/m NO 0,00 h 8 W/m 6,3 km/h (2 Bft)
23.11.2018 17:00 1,0 C 99 % 1015,5 hPa 0,0 l/m NO 0,00 h 0 W/m 8,5 km/h (2 Bft)
23.11.2018 18:00 1,0 C 99 % 1014,6 hPa 0,0 l/m N-NO 0,00 h 0 W/m 10,9 km/h (2 Bft)
23.11.2018 19:00 0,9 C 99 % 1013,9 hPa 0,0 l/m NO 0,00 h 0 W/m 10,8 km/h (2 Bft)
23.11.2018 20:00 1,0 C 99 % 1013,2 hPa 0,0 l/m NO 0,00 h 0 W/m 9,0 km/h (2 Bft)
23.11.2018 21:00 1,2 C 99 % 1013,0 hPa 0,0 l/m NO 0,00 h 0 W/m 4,4 km/h (1 Bft)
23.11.2018 22:00 1,3 C 99 % 1012,5 hPa 0,2 l/m NO 0,00 h 0 W/m 11,9 km/h (2 Bft)
23.11.2018 23:00 1,4 C 99 % 1011,6 hPa 0,2 l/m O-NO 0,00 h 0 W/m 10,9 km/h (2 Bft)
24.11.2018 00:00 1,4 C 99 % 1010,7 hPa 0,0 l/m O 0,00 h 0 W/m 9,8 km/h (2 Bft)
24.11.2018 01:00 1,6 C 99 % 1010,6 hPa 0,0 l/m NO 0,00 h 0 W/m 10,3 km/h (2 Bft)
24.11.2018 02:00 1,7 C 99 % 1011,2 hPa 0,0 l/m NO 0,00 h 0 W/m 3,1 km/h (1 Bft)
24.11.2018 03:00 1,6 C 99 % 1012,3 hPa 0,0 l/m N-NO 0,00 h 0 W/m 1,3 km/h (1 Bft)
24.11.2018 04:00 1,6 C 99 % 1012,7 hPa 0,0 l/m N-NO 0,00 h 0 W/m 1,3 km/h (1 Bft)
24.11.2018 05:00 1,7 C 99 % 1013,2 hPa 0,6 l/m N-NO 0,00 h 0 W/m 2,5 km/h (1 Bft)
24.11.2018 06:00 1,8 C 99 % 1013,3 hPa 0,0 l/m N-NO 0,00 h 0 W/m 6,3 km/h (2 Bft)
24.11.2018 07:00 2,1 C 99 % 1013,6 hPa 0,0 l/m W 0,00 h 5 W/m 3,4 km/h (1 Bft)
24.11.2018 08:00 2,3 C 99 % 1013,9 hPa 0,0 l/m W-SW 0,00 h 16 W/m 1,1 km/h (0 Bft)
24.11.2018 09:00 3,0 C 99 % 1014,2 hPa 0,0 l/m N 0,00 h 52 W/m 1,9 km/h (1 Bft)
24.11.2018 10:00 4,1 C 100 % 1014,5 hPa 0,0 l/m W-SW 0,17 h 118 W/m 4,8 km/h (1 Bft)
24.11.2018 11:00 5,0 C 99 % 1014,4 hPa 0,0 l/m SW 0,08 h 124 W/m 6,3 km/h (2 Bft)
24.11.2018 12:00 6,1 C 97 % 1014,2 hPa 0,0 l/m SW 0,33 h 191 W/m 13,3 km/h (3 Bft)
24.11.2018 13:00 6,9 C 93 % 1013,9 hPa 0,0 l/m SW 0,42 h 206 W/m 12,2 km/h (2 Bft)
24.11.2018 14:00 7,4 C 87 % 1013,5 hPa 0,0 l/m SW 0,33 h 142 W/m 6,7 km/h (2 Bft)
24.11.2018 15:00 7,2 C 88 % 1013,5 hPa 0,2 l/m SW 0,33 h 61 W/m 1,1 km/h (0 Bft)
24.11.2018 16:00 6,2 C 90 % 1013,3 hPa 0,0 l/m N 0,00 h 12 W/m 0,0 km/h (0 Bft)
24.11.2018 17:00 4,5 C 90 % 1013,4 hPa 0,0 l/m N 0,00 h 0 W/m 0,0 km/h (0 Bft)
24.11.2018 18:00 2,8 C 90 % 1013,4 hPa 0,0 l/m N 0,00 h 0 W/m 0,0 km/h (0 Bft)
24.11.2018 19:00 1,6 C 92 % 1013,5 hPa 0,0 l/m N 0,00 h 0 W/m 0,0 km/h (0 Bft)
24.11.2018 20:00 1,3 C 93 % 1013,5 hPa 0,0 l/m N 0,00 h 0 W/m 0,0 km/h (0 Bft)
24.11.2018 21:00 1,3 C 94 % 1013,4 hPa 0,0 l/m N 0,00 h 0 W/m 0,0 km/h (0 Bft)
24.11.2018 22:00 0,9 C 94 % 1013,0 hPa 0,0 l/m N 0,00 h 0 W/m 0,0 km/h (0 Bft)
24.11.2018 23:00 0,2 C 94 % 1012,9 hPa 0,0 l/m N 0,00 h 0 W/m 0,0 km/h (0 Bft)
25.11.2018 00:00 -0,4 C 94 % 1012,6 hPa 0,0 l/m N 0,00 h 0 W/m 0,0 km/h (0 Bft)
25.11.2018 01:00 -1,1 C 95 % 1012,0 hPa 0,0 l/m N 0,00 h 0 W/m 0,0 km/h (0 Bft)
25.11.2018 02:00 -1,2 C 95 % 1012,0 hPa 0,0 l/m SW 0,00 h 0 W/m 3,9 km/h (1 Bft)
25.11.2018 03:00 -1,5 C 96 % 1011,5 hPa 0,0 l/m W 0,00 h 0 W/m 2,7 km/h (1 Bft)
25.11.2018 04:00 -1,9 C 96 % 1010,9 hPa 0,0 l/m N 0,00 h 0 W/m 0,0 km/h (0 Bft)
25.11.2018 05:00 -2,3 C 96 % 1010,5 hPa 0,0 l/m N 0,00 h 0 W/m 0,0 km/h (0 Bft)
25.11.2018 06:00 -2,7 C 96 % 1010,1 hPa 0,0 l/m W 0,00 h 0 W/m 1,3 km/h (1 Bft)
25.11.2018 07:00 -2,8 C 97 % 1009,9 hPa 0,0 l/m W-NW 0,00 h 6 W/m 8,2 km/h (2 Bft)
25.11.2018 08:00 -2,3 C 97 % 1009,6 hPa 0,0 l/m W-NW 0,00 h 23 W/m 1,7 km/h (1 Bft)
25.11.2018 09:00 -1,3 C 98 % 1009,0 hPa 0,0 l/m W-NW 0,00 h 68 W/m 5,1 km/h (1 Bft)
25.11.2018 10:00 -0,7 C 98 % 1008,3 hPa 0,0 l/m NW 0,00 h 101 W/m 4,5 km/h (1 Bft)
25.11.2018 11:00 0,0 C 98 % 1007,5 hPa 0,0 l/m NW 0,00 h 125 W/m 6,7 km/h (2 Bft)
25.11.2018 12:00 0,6 C 99 % 1006,6 hPa 0,0 l/m N-NW 0,00 h 109 W/m 7,9 km/h (2 Bft)
25.11.2018 13:00 0,8 C 99 % 1006,4 hPa 0,0 l/m N-NO 0,00 h 74 W/m 12,1 km/h (2 Bft)
25.11.2018 14:00 0,9 C 99 % 1005,8 hPa 0,0 l/m NO 0,00 h 42 W/m 11,8 km/h (2 Bft)
25.11.2018 15:00 0,9 C 99 % 1006,0 hPa 0,0 l/m O-NO 0,00 h 17 W/m 12,9 km/h (3 Bft)
25.11.2018 16:00 0,8 C 99 % 1006,1 hPa 0,0 l/m O-NO 0,00 h 5 W/m 13,8 km/h (3 Bft)
25.11.2018 17:00 0,8 C 99 % 1006,1 hPa 0,0 l/m O-NO 0,00 h 0 W/m 11,4 km/h (2 Bft)
25.11.2018 18:00 1,0 C 99 % 1006,0 hPa 0,0 l/m O-NO 0,00 h 0 W/m 1,2 km/h (1 Bft)
25.11.2018 19:00 1,3 C 99 % 1005,7 hPa 0,0 l/m N 0,00 h 0 W/m 0,0 km/h (0 Bft)
25.11.2018 20:00 1,6 C 99 % 1005,3 hPa 0,0 l/m N 0,00 h 0 W/m 0,0 km/h (0 Bft)
25.11.2018 21:00 1,8 C 99 % 1005,0 hPa 0,0 l/m N 0,00 h 0 W/m 0,0 km/h (0 Bft)
25.11.2018 22:00 1,9 C 99 % 1005,0 hPa 0,0 l/m N 0,00 h 0 W/m 0,0 km/h (0 Bft)
25.11.2018 23:00 2,1 C 100 % 1004,9 hPa 0,2 l/m N 0,00 h 0 W/m 0,0 km/h (0 Bft)
Min-Datum _ 25.11.18 20.11.18 20.11.18 - - - - 20.11.18
_ Min-Zeit 07:10 14:40 05:25 - - - - 12:50
Minimum _ -2,9 C 82 % 1003,7 hPa - - - - 0,0 km/h (0 Bft)
Max-Datum _ 24.11.18 21.11.18 23.11.18 24.11.18 - 20.11.18 24.11.18 19.11.18
_ Max-Zeit 14:15 00:35 04:40 05:30 - 13:40 13:35 15:20
Maximum _ 8,0 C 100 % 1020,9 hPa 0,6 l/m - 0,08 h 385 W/m 37,0 km/h
O (5 Bft)
Durchschnitt _ 0,4 C 94 % 1012,3 hPa #1,4 l/m NO #9:10 h 75 W/m 6,8 km/h (2 Bft)